Regional Weather Roundup
Issued by NWS Kansas City/Pleasant Hill, MO

Home | Current Version | Previous Version | Text Only | Print | Product List | Glossary On
Versions: 1 2 3 4 5 6 7 8 9 10 11 12 13 14 15 16 17 18 19 20 21 22 23 24 25 26 27 28 29 30 31 32 33 34 35 36 37 38 39 40 41 42 43 44 45 46 47 48 49 50
000
ASUS43 KEAX 221110
RWREAX

WEATHER ROUNDUP FOR EASTERN KANSAS AND NORTHWEST MISSOURI
NATIONAL WEATHER SERVICE KANSAS CITY/PLEASANT HILL MO
600 AM CDT WED MAY 22 2019

KSZ040-057-103>105-MOZ028-029-037-043-221200-
...KANSAS CITY METROPOLITAN AREA...

CITY           SKY/WX    TMP DP  RH WIND       PRES   REMARKS
K.C. INTL      CLEAR     55  49  80 SW8       29.61R
K.C. DOWNTOWN  CLEAR     58  53  84 S8        29.61R
LEES SUMMIT    CLEAR     58  54  86 S12       29.62R
OLATHE - IXD   CLEAR     55  51  86 S9        29.63R
OLATHE - OJC   CLEAR     54  52  93 SW5       29.62R
LAWRENCE       CLEAR     54  48  80 SW6       29.62R

$$

MOZ001>008-011>017-020>025-030>033-038>040-044>046-053-054-221200-
...NORTHERN AND CENTRAL MISSOURI...

CITY           SKY/WX    TMP DP  RH WIND       PRES   REMARKS
ST. JOSEPH     CLEAR     55  47  74 SW9       29.59R
MOSBY          SUNNY     57  54  88 S3        29.62R
WARRENSBURG    PTCLDY    57  52  82 S12       29.64R
WHITEMAN AFB   PTCLDY    57  54  91 S10       29.61R
CLINTON        PTCLDY    55  52  88 CALM      29.68R
SEDALIA        CLEAR     52  50  93 S9        29.68R
WARSAW         NOT AVBL
CHILLICOTHE      N/A     59  53  80 VRB5      29.62R
KIRKSVILLE     CLEAR     55  52  89 S15       29.66R

$$

MOZ041-047>049-056>058-063>065-088>090-097-221200-
...EASTERN AND SOUTHERN MISSOURI...

CITY           SKY/WX    TMP DP  RH WIND       PRES   REMARKS
ST. LOUIS INTL PTCLDY    59  56  89 SE9       29.79R
SPIRIT OF STL  CLEAR     59  56  89 CALM      29.77R
COLUMBIA       CLOUDY    56  52  86 SE13      29.69R
JEFFERSON CITY CLOUDY    59  52  77 E9        29.70S
ROLLA          CLEAR     56  50  80 SE8       29.76R
OSAGE BEACH    CLOUDY    56  52  86 SE12      29.72R
SPRINGFIELD    CLOUDY    57  50  77 S15       29.71R
BRANSON        CLOUDY    57  50  77 S7        29.76R
JOPLIN         CLOUDY    62  50  64 S13       29.68R
WEST PLAINS    CLEAR     54  52  93 SE3       29.81S

$$

IAZ060-094-KSZ022-034>040-054-083-096-NEZ052-066-093-221200-
...KANSAS...SOUTHEAST NEBRASKA AND IOWA...

CITY           SKY/WX    TMP DP  RH WIND       PRES   REMARKS
TOPEKA         CLEAR     53  44  71 SW7       29.61R
MANHATTAN      CLEAR     47  42  83 SW9       29.60R
EMPORIA        CLEAR     49  45  86 W8        29.63R
CHANUTE        CLEAR     56  50  80 SW7       29.65R
WICHITA        CLEAR     45  40  82 W6        29.65R
OMAHA          CLOUDY    54  47  77 S18G31    29.45R
LINCOLN        CLOUDY    48  42  80 SW17G29   29.48R
FALLS CITY     CLEAR     50  44  80 S10       29.56R
LAMONI         CLEAR     55  52  89 S10       29.57R
DES MOINES     PTCLDY    56  52  86 S14       29.52R

$$




USA.gov is the U.S. government's official web portal to all federal, state and local government web resources and services.